Погода в Мутаре

Зимбабве     18°59′19″S   32°39′21″E
темп.,
°C
ветер,
м/с
пор.,
м/с
влажн.,
%
обл.,
%
осадки,
мм/ч
давл.,
гПа
погр.,
м
10 августа, ср
ср1023:00+13в22680 0.0 102138
02:00+11всв11945 0.0 102131
05:00+11ссв01964 0.0 102212
08:00+17в11670 0.0 1022269
11:00+23в22370 0.0 10201330
14:00+25в33310 0.0 10172015
17:00+22в24390 0.0 1017282
20:00+16в23560 0.0 102162
11 августа, чт
чт1123:00+14в23770 0.0 102252
02:00+12в129717 0.0 102148
05:00+11всв119821 0.0 102134
08:00+16в23720 0.0 1022323
11:00+22в33440 0.0 10211487
14:00+24вюв33340 0.0 10181693
17:00+21вюв24400 0.0 1018306
20:00+16в25590 0.0 1020153
12 августа, пт
пт1223:00+13в23720 0.0 102252
02:00+11в12900 0.0 102033
05:00+11св11950 0.0 102024
08:00+16в23670 0.0 1020292
11:00+23в32380 0.0 10191170
14:00+25вюв32270 0.0 10151661
17:00+22вюв23330 0.0 1015156
20:00+16в12470 0.0 101722
13 августа, сб
сб1323:00+14всв11580 0.0 101829
02:00+13св11630 0.0 101719
05:00+12с01660 0.0 101711
08:00+19ссв11443 0.0 1018222
11:00+27в222623 0.0 10141474
14:00+29вюв23200 0.0 10102207
17:00+25в35300 0.0 1010261
20:00+19всв12422 0.0 101330
14 августа, вс
вс1423:00+17св11480 0.0 101415
02:00+16зсз11535 0.0 101312
05:00+15зсз11520 0.0 101312
08:00+22зсз123459 0.0 1013201
11:00+30з341763 0.0 10102116
14:00+33юз33112 0.0 10073223
17:00+28ююв11160 0.0 100711
20:00+22св11260 0.0 101113